Location: Melbourne
(37.8170°S, 144.9670°E)
Time: 14:00:58
(UTC+10:00)

Aureole 2 Rocket - Visible Passes

Search period start: 01 October 2014 00:00
Search period end: 11 October 2014 01:00
Orbit: 349 x 751 km, 73.9° (Epoch: 29 September)

Date Brightness Start Highest point End Pass type
(mag) Time Alt. Az. Time Alt. Az. Time Alt. Az.
02 Oct 6.3 22:10:29 10° S 22:10:39 11° S 22:10:39 11° S visible
03 Oct 6.2 22:05:44 10° S 22:06:17 13° S 22:06:17 13° S visible
04 Oct 6.0 22:00:58 10° S 22:01:52 15° S 22:01:52 15° S visible
05 Oct 5.9 22:56:10 10° S 22:57:25 17° S 22:57:25 17° S visible
06 Oct 5.7 22:51:19 10° S 22:52:56 20° S 22:52:56 20° S visible
07 Oct 5.5 22:46:25 10° SSW 22:48:24 23° S 22:48:24 23° S visible
08 Oct 5.2 22:41:29 10° SSW 22:43:50 27° S 22:43:50 27° S visible
09 Oct 5.5 21:01:56 10° SE 21:03:31 11° SE 21:03:32 11° SE visible
09 Oct 5.0 22:36:30 10° SSW 22:39:14 31° SSW 22:39:14 31° SSW visible
10 Oct 5.4 20:56:13 10° SSE 20:58:35 13° SE 20:58:54 13° ESE visible
10 Oct 4.7 22:31:29 10° SSW 22:34:36 36° SSW 22:34:36 36° SSW visible
